Regional Weather Roundup
Issued by NWS

Home | Current Version | Previous Version | Graphics & Text | Print | Product List | Glossary On
Versions: 1 2 3 4 5 6 7 8 9 10 11 12 13 14 15 16 17 18 19 20 21 22 23 24 25 26 27 28 29 30 31 32 33 34 35 36 37 38 39 40 41 42 43 44 45 46 47 48 49 50
000
ASUS43 KDMX 211001
RWRIA

WEATHER ROUNDUP FOR IOWA
NATIONAL WEATHER SERVICE DES MOINES IA
400 AM CST SUN JAN 21 2018

NOTE: "FAIR" INDICATES FEW OR NO CLOUDS BELOW 12,000 FEET WITH NO
SIGNIFICANT WEATHER AND/OR OBSTRUCTIONS TO VISIBILITY.

* - THESE STATIONS ARE NOT NWS STATIONS...THUS NOT UNDER NWS
QUALITY CONTROL.  THEY ALSO DO NOT REPORT WEATHER SUCH
AS PRECIPITATION OR FOG.

IAZ001>003-012>014-020>022-031>034-043>046-211100-
   NORTHWEST IOWA

CITY           SKY/WX    TMP DP  RH WIND       PRES   REMARKS
CARROLL *      CLOUDY    34  34 100 N3        29.88S FOG
CHEROKEE *     CLOUDY    29  29 100 N6        29.89F WCI  23
DENISON *      CLOUDY    34  34 100 E6        29.88S WCI  29
LE MARS *      CLOUDY    28  27  93 N9        29.89F WCI  20
ORANGE CITY *  CLOUDY    32  28  86 NE6       29.90S WCI  26
SHELDON *      CLOUDY    25  25 100 NE7       29.90S WCI  17
SIOUX CITY     CLOUDY    28  27  96 N6        29.89F WCI  22
SPENCER        CLOUDY    30  27  88 NE9       29.91F WCI  22
STORM LAKE *   CLOUDY    30  30 100 NE12      29.88F WCI  21
$$

IAZ055>058-069>071-079>083-090>094-211100-
   SOUTHWEST IOWA

CITY           SKY/WX    TMP DP  RH WIND       PRES   REMARKS
ATLANTIC *     CLOUDY    39  37  93 NE7       29.85S WCI  34
AUDUBON *      CLOUDY    37  36  93 CALM      29.87S FOG
CLARINDA *       N/A     41  41 100 N5          N/A
COUNCIL BLFS * CLOUDY    37  37 100 N8        29.83F FOG     WCI  31
CRESTON *      CLOUDY    41  39  93 NE9       29.85F FOG
HARLAN  *      CLOUDY    37  37 100 NE7       29.88F WCI  32
LAMONI         CLOUDY    43  40  89 E6        29.83F
RED OAK *      CLOUDY    41  39  93 NE6       29.83F
SHENANDOAH *   CLOUDY    41  39  93 NE8       29.82F FOG
$$

IAZ047>049-059>061-072>074-084-211100-
   CENTRAL IOWA

CITY           SKY/WX    TMP DP  RH WIND       PRES   REMARKS
AMES           CLOUDY    37  36  96 N5        29.89S FOG     WCI  33
ANKENY *       CLOUDY    37  36  93 CALM      29.89S FOG
BOONE *        CLOUDY    36  34  93 NE7       29.87S FOG     WCI  30
CHARITON *     CLOUDY    43  41  93 SE7       29.85S
DES MOINES     DRIZZLE   40  36  86 NE7       29.87S FOG
GRINNELL*      CLOUDY    37  36  96 E7        29.90S FOG     WCI  31
KNOXVILLE *    CLOUDY    41  37  87 NE5       29.86S
MARSHALLTOWN   CLOUDY    37  36  96 E7        29.89S FOG     WCI  32
NEWTON *       CLOUDY    37  37 100 NE7       29.89S FOG     WCI  32
PELLA *        CLOUDY    41  39  92 E5        29.89S
$$

IAZ004>006-015-016-023>025-035-036-211100-
   NORTH CENTRAL IOWA

CITY           SKY/WX    TMP DP  RH WIND       PRES   REMARKS
ALGONA *       CLOUDY    30 N/A N/A NE7       29.90S WCI  23
CLARION *      CLOUDY    28  28 100 NE6       29.89F WCI  22
ESTHERVILLE    CLOUDY    28  27  96 N7        29.91F WCI  21
FORT DODGE *   CLOUDY    31  31 100 SE7       29.90S WCI  24
MASON CITY     CLOUDY    29  27  92 N3        29.91F FOG
FOREST CITY *    N/A     32  32 100 NE6       29.90S WCI  26
IOWA FALLS *   CLOUDY    34  33  96 CALM      29.91S FOG
$$

IAZ007>011-017>019-026>030-037>042-050>054-066-211100-
   NORTHEAST IOWA

CITY           SKY/WX    TMP DP  RH WIND       PRES   REMARKS
CEDAR RAPIDS   CLOUDY    39  37  92 E5        29.91S FOG
CHARLES CITY * FOG       28  28 100 E6        29.91F VSB 1/2 WCI  22
CLINTON *      CLOUDY    37  35  92 E7        29.94F FOG     WCI  32
DECORAH *        N/A     27  27 100 SE3       29.90F FOG
DUBUQUE        CLOUDY    37  34  89 SE3       29.92F FOG
MONTICELLO *   CLOUDY    34  34 100 CALM      29.93S FOG
OELWEIN *      CLOUDY    32  32 100 SE5       29.93S FOG     WCI  27
WATERLOO       CLOUDY    30  30 100 NE5       29.91F FOG     WCI  25
$$

IAZ064-065-067-068-078-211100-
   EAST CENTRAL IOWA

CITY           SKY/WX    TMP DP  RH WIND       PRES   REMARKS
DAVENPORT      CLOUDY    41  37  86 E7        29.94F
IOWA CITY      CLOUDY    39  36  89 CALM      29.93F FOG
MUSCATINE *    CLOUDY    39  36  87 CALM      29.93S
QUAD CITIES    CLOUDY    41  37  86 NE6       29.92F
$$

IAZ062-063-075>077-085>089-095>099-211100-
   SOUTHEAST IOWA

CITY           SKY/WX    TMP DP  RH WIND       PRES   REMARKS
BURLINGTON     CLOUDY    41  37  86 SE3       29.90F
FAIRFIELD *    CLOUDY    41  39  93 E5        29.89S
FORT MADISON * CLOUDY    43  39  87 SE5       29.91S
KEOKUK *       CLOUDY    43  39  87 SE6       29.89F
OTTUMWA        CLOUDY    41  38  89 E7        29.87F
WASHINGTON *   CLOUDY    39  39 100 E6        29.91F WCI  35
$$

ABBREVIATIONS USED IN REMARKS
   TC - TEMPERATURES IN CELSIUS
  WCI - WIND CHILL INDEX
   HX - HEAT INDEX
  VSB - VISIBILITY
$$





USA.gov is the U.S. government's official web portal to all federal, state and local government web resources and services.